Weather History for Arlington, TX

Change the Weather History Date:

Saturday, November 23, 2013

  Actual Average (KRBD) Record (KRBD)
Temperature  
Mean Temperature 38 °F -  
Max Temperature 42 °F 61 °F 81 °F (2005)
Min Temperature 35 °F 43 °F 33 °F (1996)
Degree Days  
Heating Degree Days 26    
Moisture  
Dew Point 33 °F    
Average Humidity 86    
Maximum Humidity 100    
Minimum Humidity 62    
Precipitation  
Precipitation 0.00 in - - ()
Sea Level Pressure  
Sea Level Pressure 30.51 in    
Wind  
Wind Speed 14 mph (NNW)    
Max Wind Speed 17 mph    
Max Gust Speed 25 mph    
Visibility 7 miles    
Events Rain , Snow    
Averages and records for this station are not official NWS values.
T = Trace of Precipitation, MM = Missing Value Source: NWS Daily Summary

Daily Weather History Graph

Daily Weather History Graph

Search for Another Location

Airport:

Trip Planner

Search our weather history database for the weather conditions in past years. The results will help you decide how hot, cold, wet, or windy it might be!

Date:

Astronomy

Nov. 23, 2013 Rise Set
Actual Time 7:05 AM CST 5:23 PM CST
Civil Twilight 6:39 AM CST 5:50 PM CST
Nautical Twilight 6:09 AM CST 6:20 PM CST
Astronomical Twilight 5:39 AM CST 6:49 PM CST
Moon 10:46 PM CST (11/23) 11:29 AM CST (11/23)
Length of Visible Light 11h 11m
Length of Day
10h 17m
Waning Gibbous, 69% of the Moon is Illuminated
Nov 23
Waning Gibbous
Nov 25
Last Quarter
Dec 2
New
Dec 9
First Quarter
Dec 17
Full

Hourly Weather History & Observations

Time (CST) Temp. Windchill Dew Point Humidity Pressure Visibility Wind Dir Wind Speed Gust Speed Precip Events Conditions
12:53 AM 35.1 °F 25.9 °F 34.0 °F 96% 30.45 in 8.0 mi NNW 13.8 mph - N/A   Overcast
1:53 AM 36.0 °F 27.1 °F 34.0 °F 93% 30.44 in 10.0 mi NNW 13.8 mph 20.7 mph N/A   Overcast
2:53 AM 36.0 °F 26.7 °F 34.0 °F 93% 30.46 in 10.0 mi NNW 15.0 mph - N/A   Overcast
3:53 AM 36.0 °F 27.1 °F 34.0 °F 93% 30.46 in 10.0 mi NNW 13.8 mph - N/A   Overcast
4:53 AM 36.0 °F 29.0 °F 34.0 °F 93% 30.47 in 10.0 mi NNW 9.2 mph - N/A   Overcast
5:53 AM 35.1 °F 25.5 °F 34.0 °F 96% 30.47 in 3.0 mi NNW 15.0 mph - 0.00 in Rain Light Rain
6:53 AM 36.0 °F 26.7 °F 34.0 °F 93% 30.48 in 4.0 mi North 15.0 mph - 0.00 in Rain Light Rain
7:53 AM 36.0 °F 26.3 °F 34.0 °F 93% 30.52 in 5.0 mi North 16.1 mph - 0.00 in   Overcast
8:53 AM 36.0 °F 27.5 °F 34.0 °F 93% 30.54 in 3.0 mi NW 12.7 mph - N/A   Overcast
9:00 AM 35.6 °F 26.6 °F 35.6 °F 100% 30.53 in 2.5 mi NNW 13.8 mph - N/A   Overcast
9:17 AM 35.6 °F 27.1 °F 35.6 °F 100% 30.54 in 1.8 mi NNW 12.7 mph 21.9 mph 0.00 in Snow Light Snow
9:42 AM 35.6 °F 27.5 °F 35.6 °F 100% 30.55 in 2.0 mi NW 11.5 mph - 0.00 in   Overcast
9:53 AM 36.0 °F 27.1 °F 35.1 °F 97% 30.55 in 3.0 mi NNW 13.8 mph - 0.00 in Rain Light Rain
10:19 AM 37.4 °F 29.3 °F 35.6 °F 93% 30.54 in 2.5 mi North 12.7 mph - 0.00 in Rain Light Rain
10:35 AM 35.6 °F 25.9 °F 35.6 °F 100% 30.54 in 3.0 mi North 16.1 mph - 0.00 in Rain Light Rain
10:53 AM 37.0 °F 28.9 °F 35.1 °F 93% 30.55 in 3.0 mi North 12.7 mph - 0.00 in Rain Light Rain
11:53 AM 37.0 °F 27.7 °F 35.1 °F 93% 30.53 in 5.0 mi North 16.1 mph - N/A Rain Light Rain
12:25 PM 37.4 °F 29.3 °F 35.6 °F 93% 30.50 in 7.0 mi North 12.7 mph - N/A Rain Light Rain
12:53 PM 37.9 °F 28.9 °F 35.1 °F 89% 30.51 in 6.0 mi North 16.1 mph 19.6 mph N/A   Overcast
1:53 PM 39.9 °F 33.4 °F 37.0 °F 89% 30.49 in 7.0 mi NNW 10.4 mph - N/A   Overcast
2:27 PM 39.2 °F 30.5 °F 35.6 °F 87% 30.48 in 10.0 mi North 16.1 mph 24.2 mph N/A   Overcast
2:46 PM 39.2 °F 30.8 °F 35.6 °F 87% 30.48 in 10.0 mi North 15.0 mph - N/A   Overcast
2:53 PM 39.9 °F 31.1 °F 36.0 °F 86% 30.49 in 10.0 mi North 17.3 mph - N/A   Overcast
3:53 PM 39.9 °F 31.8 °F 34.0 °F 79% 30.49 in 10.0 mi North 15.0 mph - N/A   Overcast
4:53 PM 42.1 °F 34.9 °F 34.0 °F 73% 30.50 in 10.0 mi North 13.8 mph 20.7 mph N/A   Overcast
5:53 PM 41.0 °F 33.5 °F 30.9 °F 67% 30.50 in 10.0 mi North 13.8 mph 25.3 mph N/A   Overcast
6:53 PM 39.9 °F 32.5 °F 30.0 °F 68% 30.50 in 10.0 mi North 12.7 mph 21.9 mph N/A   Mostly Cloudy
7:53 PM 39.0 °F 32.8 °F 30.0 °F 70% 30.51 in 10.0 mi North 9.2 mph - N/A   Clear
8:53 PM 39.0 °F 31.8 °F 28.9 °F 67% 30.53 in 10.0 mi North 11.5 mph - N/A   Clear
9:53 PM 39.0 °F 32.8 °F 28.0 °F 65% 30.54 in 10.0 mi North 9.2 mph - N/A   Clear
10:53 PM 37.9 °F 31.5 °F 26.1 °F 62% 30.54 in 10.0 mi North 9.2 mph - N/A   Clear
11:53 PM 37.0 °F 31.0 °F 25.0 °F 62% 30.53 in 10.0 mi North 8.1 mph - N/A   Clear